Location: ???? ?????
(44.5005°N, 135.9544°E)
Time: 14:44:17
(UTC+00:00)

Daily predictions for brighter satellites

Satellite Brightness Start Highest point End
(mag) Time Altitude Azimuth Time Altitude Azimuth Time Altitude Azimuth
CZ-4 R/B 3.9 12:01:36 10° WSW 12:03:21 13° W 12:05:07 10° WNW
CZ-4B R/B 2.6 12:05:03 47° ESE 12:05:36 55° ENE 12:08:55 10° N
Cosmos 1782 2.3 12:09:48 41° S 12:10:55 88° E 12:14:27 10° N
Cosmos 2233 Rocket 3.9 12:08:45 20° S 12:13:12 75° E 12:19:23 10° NNE
Ariane Rocket 3.1 12:12:01 34° SE 12:14:03 60° ENE 12:19:02 10° N
Cosmos 2369 4.2 12:08:52 10° NNW 12:14:25 50° ENE 12:16:52 31° ESE
SL-08 R/B 4.5 12:10:00 16° S 12:15:10 88° E 12:21:34 10° N
Cosmos 1607 3.8 12:09:48 10° SSW 12:15:53 69° ESE 12:22:05 10° NE
Cosmos 2082 Rocket 2.2 12:12:23 19° S 12:16:27 62° ESE 12:22:06 10° NNE
Cosmos 2322 Rocket 4.3 12:13:33 10° N 12:16:58 16° NE 12:20:22 10° E
Cosmos 44 Rocket 3.7 12:12:54 10° SW 12:17:55 69° NW 12:23:06 10° NNE
Spot 2 Rocket 4.3 12:16:40 18° SSW 12:20:08 45° W 12:24:58 10° NNW
ATLAS 3B R/B 3.2 12:12:48 10° NW 12:20:23 61° WSW 12:24:34 27° S
Tsikada Rocket 3.9 12:15:21 10° N 12:21:34 82° E 12:24:41 31° SSE
CZ-4C R/B 2.4 12:18:47 10° SW 12:22:50 54° NW 12:28:00 10° NNE
Cosmos 1725 Rocket 4.4 12:17:38 10° SSW 12:23:52 64° W 12:30:06 10° N
BREEZE-M DEB (TANK) 3.9 12:23:57 10° WNW 12:27:24 60° SSW 12:30:42 32° SE
BREEZE-M DEB (TANK) 4.4 12:10:46 10° WSW 12:29:05 90° NNW 12:34:27 10° ENE
Cosmos 1602 Rocket 4.5 12:32:47 10° N 12:36:39 32° ENE 12:36:47 32° ENE
USA 305 3.6 12:34:33 10° NW 12:38:17 35° NNE 12:38:58 32° NE
COSMOS 2406 3.5 12:37:43 42° SE 12:38:32 44° ESE 12:43:58 10° NE
Cosmos 1697 Rocket 4.3 12:35:18 10° NW 12:39:49 26° WSW 12:43:13 15° SSW
DELTA 2 R/B (1) 4.2 12:35:10 10° SW 12:39:20 36° S 12:39:20 36° S
NOSS 3-3 (A) 3.5 12:38:17 32° SSW 12:40:39 68° ESE 12:46:34 10° NE
Meteor 1-20 Rocket 4.3 12:36:28 10° N 12:41:57 59° ENE 12:43:25 45° SE
SL-16 R/B 3.1 12:38:43 10° NNW 12:43:57 37° NE 12:45:49 29° E
CZ-2C R/B 3.3 12:45:27 39° NNW 12:45:27 39° NNW 12:47:21 10° NNW
Cosmos 1743 4.3 12:45:06 10° NW 12:47:23 20° W 12:47:43 19° W
Cosmos 1992 Rocket 3.8 12:46:09 47° S 12:47:39 75° ESE 12:52:52 10° NNE
ISS -3.1 12:45:43 10° WSW 12:49:00 55° NNW 12:49:10 54° NNW
Cosmos 2061 Rocket 4.2 12:45:24 24° SSW 12:49:19 71° W 12:55:35 10° N
Cosmos 2151 2.9 12:48:33 10° N 12:52:36 65° ENE 12:52:36 65° ENE
Okean O Rocket 3.8 12:51:17 13° SW 12:53:40 19° W 12:56:45 10° NW
Cosmos 1626 Rocket 3.4 12:50:27 10° N 12:54:48 84° W 12:55:12 72° SSW
Cosmos 2333 Rocket 3.0 12:50:39 10° NNW 12:56:00 40° NE 12:57:39 33° E
Cosmos 2228 4.3 12:54:40 22° SW 12:56:37 35° WNW 13:00:25 10° N
Cosmos 1437 Rocket 3.4 12:58:59 41° NNE 12:58:59 41° NNE 13:01:28 10° NNE
SL-4 R/B 3.9 12:55:37 10° W 12:57:33 18° WSW 12:57:33 18° WSW
Meteor 1-25 Rocket 4.3 12:54:24 10° N 13:00:04 62° ENE 13:01:10 52° SE
CZ-4B R/B 4.1 12:59:54 36° SW 13:01:09 45° W 13:05:44 10° NNW
Cosmos 909 Rocket 4.1 12:55:29 10° SW 13:01:53 81° NW 13:08:19 10° NNE
Okean 1-7 Rocket 4.4 12:59:19 10° N 13:03:17 38° ENE 13:03:17 38° ENE
Cosmos 1980 Rocket 3.3 13:02:55 10° NW 13:08:00 34° WSW 13:09:48 28° SW
NOSS 3-3 (C) 3.5 13:06:17 40° SW 13:08:18 88° SE 13:14:25 10° NE
Cosmos 1606 Rocket 4.4 13:11:05 37° ENE 13:11:05 37° ENE 13:14:21 10° NNE
Cosmos 1464 Rocket 4.0 13:10:09 52° SE 13:11:15 61° E 13:17:19 10° NNE
BREEZE-M DEB 3.9 13:10:47 10° WSW 13:15:18 66° SSE 13:23:49 10° ENE
Cosmos 1513 Rocket 4.4 13:13:27 47° S 13:15:27 87° W 13:21:41 10° N
Helios 1A 3.6 13:11:37 10° NNE 13:14:29 44° NE 13:14:29 44° NE
Cosmos 2098 Rocket 3.2 13:22:23 78° SE 13:22:37 81° E 13:27:24 10° N
NOSS 3-4 (A) 4.5 13:18:56 10° NNW 13:25:22 48° NE 13:29:02 28° ESE
NOSS 3-4 (C) 4.5 13:19:32 10° NNW 13:25:59 48° NE 13:29:41 28° ESE
Cosmos 1072 Rocket 4.4 13:24:53 57° S 13:26:18 86° E 13:32:37 10° N
Gbstr 26 Del rocket 4.3 13:28:03 10° WNW 13:30:58 30° W 13:30:58 30° W
Cosmos 1076 Rocket 4.4 13:28:44 10° N 13:32:07 40° NE 13:32:07 40° NE
Cosmos 2360 Rocket 2.8 13:29:10 10° NNW 13:34:38 46° ENE 13:35:37 42° E
Meteor 2-10 4.1 13:35:51 10° N 13:41:36 87° E 13:42:08 75° SSE
USA 234 3.1 13:37:22 10° NE 13:43:57 77° SE 13:46:23 42° SW
Cosmos 2034 Rocket 3.9 13:44:06 64° SSE 13:44:59 74° E 13:51:20 10° NNE
Cosmos 1428 Rocket 4.3 13:41:45 10° N 13:48:02 88° W 13:48:55 68° S
Cosmos 2219 Rocket 3.0 13:47:04 10° NNW 13:52:24 40° ENE 13:53:26 37° E
ALOS 2 3.4 13:59:36 44° NE 13:59:36 44° NE 14:03:10 10° N
ARIANE 5 R/B 3.2 14:00:23 53° NNE 14:00:23 53° NNE 14:04:03 10° N
Helios 1B rocket 3.9 14:02:05 29° NW 14:02:05 29° NW 14:03:59 10° NNW
Cosmos 2082 Rocket 4.2 13:56:21 10° WSW 14:00:57 25° NW 14:05:35 10° N
Cosmos 2322 Rocket 2.1 13:56:15 10° NNW 14:01:56 79° ENE 14:02:10 77° E
Cosmos 540 Rocket 3.9 14:05:03 50° ENE 14:05:03 50° ENE 14:09:12 10° NNE
Cosmos 2058 Rocket 4.1 14:06:12 39° NE 14:06:12 39° NE 14:09:12 10° NNE
Cosmos 1825 Rocket 4.3 14:00:57 10° NNW 14:04:22 47° NW 14:04:22 47° NW
ACS3 Solar Sail 4.0 14:05:19 10° ENE 14:06:04 10° E 14:06:41 10° E
Cosmos 1953 Rocket 4.2 14:02:18 10° N 14:05:44 54° N 14:05:44 54° N
CZ-2C R/B 4.1 14:06:30 10° NNE 14:10:05 58° N 14:10:05 58° N
Cosmos 1634 Rocket 3.9 14:14:39 69° ESE 14:14:59 70° E 14:21:08 10° NNE
Cosmos 2279 Rocket 4.2 14:19:08 53° E 14:19:25 53° E 14:25:28 10° NNE
Cosmos 2278 4.0 14:15:00 10° NNW 14:20:20 54° W 14:20:20 54° W
Cosmos 1763 Rocket 3.5 14:26:18 78° NNW 14:26:18 78° NNW 14:31:20 10° NNE
CZ-2C R/B 3.8 14:21:51 10° NNE 14:27:04 47° E 14:27:04 47° E
SL-16 R/B 3.1 14:22:51 10° NW 14:27:39 36° W 14:27:39 36° W
Cosmos 1503 Rocket 4.2 14:23:16 10° NNW 14:27:52 63° WNW 14:27:52 63° WNW
Cosmos 990 Rocket 4.1 14:28:12 10° NNW 14:32:51 73° NNW 14:32:51 73° NNW
Meteor 2-6 Rocket 4.3 14:35:45 72° E 14:35:46 72° E 14:41:44 10° NNE
Meteor 2-2 Rocket 4.2 14:36:18 76° W 14:36:23 76° WNW 14:42:06 10° N
Cosmos 1354 Rocket 4.1 14:33:12 10° NNW 14:37:56 72° NW 14:37:56 72° NW
ARGOS Delta rocket 4.1 14:34:18 10° N 14:38:58 74° NNW 14:38:58 74° NNW
Cosmos 2333 Rocket 3.3 14:35:08 10° NW 14:39:39 33° W 14:39:39 33° W
Cosmos 2026 Rocket 4.3 14:37:57 10° NNW 14:44:06 52° W 14:44:40 51° WSW
Cosmos-2242 4.3 14:46:11 35° NW 14:46:11 35° NW 14:49:04 10° N
SeaSat 1 3.1 14:45:54 46° ENE 14:46:11 46° NE 14:50:53 10° NNW
Cosmos 1833 4.3 14:48:03 65° W 14:48:22 66° WNW 14:54:00 10° NNE
CZ-2C R/B 2.9 14:49:10 57° ENE 14:49:15 57° ENE 14:54:25 10° N
Cosmos 2266 Rocket 4.4 14:45:14 10° N 14:51:05 49° ENE 14:51:47 47° E
Cosmos 841 Rocket 4.4 14:52:40 38° ENE 14:52:40 38° ENE 14:56:39 10° NE
Cosmos 2297 Rocket 3.6 15:05:08 25° E 15:05:08 25° E 15:09:12 10° NE
Cosmos 2322 4.1 14:59:29 10° NNW 15:05:06 55° ENE 15:05:53 51° E
Cosmos 2221 3.5 15:08:31 42° N 15:08:31 42° N 15:11:21 10° N
Aureole 1 Rocket 3.8 15:06:00 10° NNW 15:11:26 74° WSW 15:11:26 74° WSW
NOSS 3-4 (A) 4.2 15:09:44 10° NW 15:16:23 47° WSW 15:16:25 47° WSW
NOSS 3-4 (C) 4.2 15:10:20 10° NW 15:17:01 48° WSW 15:17:05 48° WSW
Meteor 1-11 Rocket 3.7 15:11:21 10° N 15:17:04 71° ENE 15:17:16 70° E
Cosmos 2142 Rocket 4.4 15:16:49 73° SW 15:17:21 78° W 15:23:39 10° N
Cosmos 2180 Rocket 4.3 15:17:13 75° SW 15:17:40 81° W 15:23:59 10° N
Cosmos 2360 Rocket 3.5 15:13:36 10° NW 15:17:20 27° W 15:17:20 27° W
Meteor 1-10 Rocket 4.2 15:20:13 80° ESE 15:20:23 81° E 15:26:19 10° NNE
Cosmos 372 Rocket 4.2 15:20:12 10° NNW 15:24:30 60° NW 15:24:30 60° NW
Cosmos 1937 Rocket 3.7 15:20:21 10° NNW 15:25:28 62° ENE 15:25:30 62° ENE
USA 234 4.2 15:20:34 10° NE 15:26:42 44° NNW 15:32:48 10° W
Cosmos 44 3.5 15:21:45 10° NNW 15:26:53 78° N 15:26:53 78° N
Cosmos 1812 Rocket 4.3 15:29:06 50° NNW 15:29:06 50° NNW 15:32:29 10° N
Cosmos 2219 Rocket 3.3 15:31:13 10° NW 15:35:06 30° W 15:35:06 30° W
IDEFIX/ARIANE 42P 4.2 15:35:49 10° NE 15:39:50 22° E 15:40:34 21° ESE
Meteor 1-27 Rocket 3.7 15:40:51 74° SE 15:41:14 78° E 15:47:04 10° NNE
GP-B 4.2 15:40:19 10° NNW 15:43:27 36° NW 15:43:27 36° NW
Cosmos 2322 Rocket 4.2 15:42:00 10° WNW 15:43:57 15° W 15:43:57 15° W
Lacrosse 4 Rocket 3.5 15:49:24 17° E 15:49:24 17° E 15:51:06 10° ENE
Cosmos 1898 Rocket 3.8 15:43:16 10° NNW 15:47:38 55° WNW 15:47:38 55° WNW
ACS3 Solar Sail 1.7 15:43:24 10° NNE 15:49:25 71° E 15:50:10 64° SSE
RESURS DK-1 3.6 15:45:47 10° NNW 15:48:14 36° NNW 15:48:14 36° NNW
Meteor 2-4 Rocket 3.6 15:50:58 68° ESE 15:51:10 69° E 15:56:34 10° NNE
Cosmos 1842 Rocket 4.4 15:55:08 44° ENE 15:55:08 44° ENE 15:58:52 10° NNE
COSMOS 2428 2.7 15:53:18 10° NNW 15:58:48 66° W 15:58:48 66° W
Cosmos 2237 Rocket 2.6 15:57:42 10° NNW 16:03:20 59° ENE 16:05:26 37° ESE
ISS -1.4 16:05:12 21° ENE 16:05:12 21° ENE 16:06:47 10° ENE
Cosmos 1980 3.9 16:01:14 10° NNW 16:06:53 68° ENE 16:08:34 45° SE
Iridium 4 Rocket 3.5 16:08:26 75° S 16:08:57 88° E 16:14:40 10° N
Cosmos 2227 Rocket 3.0 16:12:56 36° SE 16:13:51 38° ESE 16:19:03 10° NE
BlueWalker 3 4.4 16:20:19 13° E 16:20:19 13° E 16:20:59 10° E
Meteor 2-10 Rocket 3.7 16:13:57 10° N 16:19:24 78° E 16:20:34 57° SSE
Meteor 2-11 Rocket 4.4 16:13:33 10° N 16:19:43 81° E 16:21:24 50° SSE
Cosmos 1553 Rocket 4.3 16:18:05 44° SSE 16:20:00 63° E 16:26:18 10° NNE
PSLV R/B 4.4 16:18:37 10° N 16:21:43 53° NNW 16:21:43 53° NNW
SeaSat 1 4.1 16:25:30 21° WNW 16:25:30 21° WNW 16:27:48 10° NW
In-Cosmos 22 4.4 16:27:39 47° SE 16:28:55 60° E 16:34:23 10° NNE
CZ-2C R/B 4.3 16:30:36 19° W 16:30:36 19° W 16:33:37 10° NW
Meteor 1-18 Rocket 4.1 16:28:45 59° S 16:29:48 80° E 16:35:25 10° NNE
NOSS 0 Rocket 4.0 16:26:04 10° NW 16:32:00 51° WSW 16:32:21 50° WSW
Cosmos 1655 Rocket 4.1 16:26:06 10° NNW 16:32:11 58° W 16:33:16 51° SW
Cosmos 1758 3.8 16:30:59 10° N 16:34:13 50° ENE 16:34:13 50° ENE
Cosmos 2263 Rocket 3.2 16:33:42 29° SE 16:35:19 35° ESE 16:40:21 10° NE
Nimbus 7 Rocket 4.4 16:30:53 10° NNE 16:36:59 84° ESE 16:38:42 50° S
CZ-2D R/B 4.3 16:34:01 10° NE 16:37:39 18° E 16:41:17 10° SE
Cosmos 1408 Rocket 4.2 16:34:17 10° N 16:38:28 50° ENE 16:39:24 41° ESE
Cosmos 1238 Rocket 4.4 16:40:24 23° NW 16:40:24 23° NW 16:42:47 10° NNW
Spot 1 4.4 16:36:07 10° N 16:40:34 59° WNW 16:40:52 58° W
MSX 3.8 16:37:16 10° NNE 16:43:04 79° ESE 16:44:47 48° S
SL-08 R/B 4.4 16:37:09 10° N 16:43:31 88° E 16:46:04 39° S
Cosmos 192 4.2 16:42:58 10° NNW 16:47:56 89° ENE 16:49:11 51° SSE
Cosmos 2297 Rocket 2.6 16:46:54 41° WSW 16:48:20 51° WNW 16:53:50 10° NNE
MINOTAUR IV R/B 4.4 16:48:12 73° S 16:48:34 82° ESE 16:53:04 10° NNE
Cosmos 1745 Rocket 4.4 16:46:36 10° N 16:52:39 60° ENE 16:57:00 19° SSE
ALOS 4.3 16:51:57 10° NE 16:55:22 21° E 16:58:14 12° SE
BREEZE-M DEB (TANK) 3.2 16:54:57 35° NW 16:56:02 62° NNE 17:02:41 10° ESE
Sich 1 3.1 16:53:01 10° NNW 16:56:50 55° WNW 16:56:50 55° WNW
Okean 3 Rocket 3.8 17:02:38 10° NNW 17:06:59 49° W 17:07:12 49° WSW
CZ-3 Stage 3 4.5 17:09:02 14° SSE 17:09:02 14° SSE 17:12:32 10° SE
Cosmos 1703 3.6 17:12:01 39° ESE 17:12:23 41° E 17:15:26 10° NNE
Cosmos 1417 Rocket 4.4 17:11:16 32° S 17:14:16 87° E 17:20:26 10° N
IDEFIX/ARIANE 42P 2.9 17:14:30 10° N 17:19:32 51° WNW 17:21:16 36° WSW
Cosmos 1500 Rocket 3.6 17:16:31 10° NNW 17:20:54 62° W 17:21:55 47° SSW
ATLAS 2AS CENTAUR R/B 4.5 17:14:54 10° NNW 17:20:55 32° NE 17:26:56 10° E
Lacrosse 4 Rocket 2.1 17:24:48 34° W 17:25:38 39° NW 17:29:27 10° NNE
Cosmos 2219 3.7 17:25:04 24° S 17:28:18 53° ESE 17:33:46 10° NE
Cosmos 1953 3.1 17:25:34 10° N 17:29:06 45° ENE 17:31:49 15° SSE
SL-16 R/B 2.3 17:25:17 10° NNW 17:31:01 82° ENE 17:36:43 10° SSE
ACS3 Solar Sail 3.3 17:26:52 10° NNW 17:31:08 21° WNW 17:33:39 16° W
DMSP B5D2-2 4.1 17:26:39 13° SSE 17:31:22 79° ENE 17:36:36 10° NNW
Cosmos 1125 Rocket 3.4 17:29:58 10° NNW 17:35:18 86° WSW 17:40:34 10° SSE
ADEOS Rocket 3.7 17:28:50 10° N 17:36:31 65° WNW 17:41:09 25° SW
USA 281 3.1 17:30:22 10° SSE 17:36:57 84° WSW 17:43:33 10° NNW
Cosmos 1151 Rocket 3.8 17:37:03 32° WSW 17:37:57 35° WNW 17:41:54 10° N
Cosmos 2315 Rocket 4.0 17:33:57 22° S 17:38:20 89° E 17:44:44 10° N
CRYOSAT 2 4.3 17:37:44 25° S 17:40:37 77° W 17:45:32 10° N
ISS -3.9 17:38:19 17° WNW 17:40:48 73° SW 17:44:10 10° SE
S3M 4.0 17:38:05 26° SSW 17:41:45 69° W 17:47:56 10° N
H-2A R/B 2.8 17:36:58 10° NNE 17:42:13 52° E 17:46:57 13° S
NOAA 11 4.3 17:41:25 10° N 17:46:47 63° WNW 17:49:53 26° SW
Cosmos 2237 Rocket 3.4 17:42:42 10° NW 17:46:53 22° W 17:47:11 21° WSW
Cosmos 1805 Rocket 4.4 17:43:45 10° NNW 17:47:30 29° W 17:48:13 28° WSW
Cosmos 1666 Rocket 3.7 17:43:26 10° N 17:47:54 77° E 17:52:16 10° SSE
FENGYUN 3A 4.4 17:45:20 10° N 17:50:19 39° WNW 17:52:58 24° WSW
Cosmos 1743 Rocket 3.9 17:46:57 10° NNW 17:51:04 45° W 17:52:48 29° SW
NOSS 2-2 (C) 3.9 17:52:59 23° S 17:54:34 36° ESE 17:57:25 10° NE
BlueWalker 3 1.9 17:53:57 31° W 17:55:27 62° NNW 17:58:58 10° NE
Resurs 1-4 Rocket 2.1 17:50:47 10° NNE 17:56:06 88° WNW 18:00:01 18° SSW
Cosmos 2227 Rocket 3.1 17:54:43 20° WSW 17:57:53 36° NW 18:03:06 10° NNE
Cosmos 773 Rocket 4.0 17:56:55 20° SSW 18:00:30 83° ESE 18:05:38 10° NNE
Cosmos 1340 Rocket 3.9 18:00:18 10° NW 18:03:25 24° W 18:03:58 23° WSW
ADEOS II 2.2 17:59:17 10° NNE 18:04:31 73° ESE 18:09:28 11° S
Meteor 1-21 4.3 18:02:53 11° S 18:08:26 78° E 18:14:04 10° NNE
Cosmos 1515 Rocket 4.3 18:05:49 10° S 18:10:05 52° E 18:14:24 10° NNE
Meteor 1-13 Rocket 4.3 18:08:51 18° SSW 18:13:00 60° WNW 18:18:38 10° N
Cosmos 1709 Rocket 4.4 18:09:58 10° NNW 18:15:43 43° W 18:21:05 12° SSW
Tiangong -1.5 18:15:39 25° SW 18:16:56 39° S 18:19:53 10° E
USA 81 4.1 18:12:33 10° NNW 18:17:43 60° W 18:22:52 10° S
CZ-2D R/B 2.2 18:12:42 10° N 18:18:02 65° WNW 18:22:43 14° SSW
Cosmos 2263 Rocket 3.0 18:15:22 17° WSW 18:19:09 37° NW 18:24:21 10° NNE
ARGOS 3.8 18:17:01 10° NNE 18:22:16 54° E 18:27:29 10° S
Cosmos 1943 3.3 18:17:21 10° NNW 18:23:00 81° ENE 18:28:37 10° SSE
Cosmos 1328 Rocket 4.1 18:22:16 17° SW 18:25:19 42° WNW 18:29:31 10° N
Meteor 1-16 Rocket 4.0 18:20:27 10° NNW 18:25:47 85° W 18:31:05 10° S
BREEZE-M DEB (TANK) 3.2 18:20:05 10° W 18:26:11 42° NNW 18:28:55 10° ENE
Envisat 3.7 18:23:57 10° N 18:28:37 38° WNW 18:32:33 14° SW
CENTAUR R/B 2.9 18:24:23 10° SSW 18:29:29 54° ESE 18:35:55 10° NE
H-2A R/B 2.6 18:27:02 11° SSW 18:30:11 37° W 18:33:32 10° NNW
IRIDIUM 106 4.4 18:26:48 10° N 18:32:03 84° E 18:37:16 10° S
ALOS 2.7 18:28:10 10° N 18:32:28 42° WNW 18:36:15 13° SW
Cosmos 2297 Rocket 4.5 18:32:15 10° NW 18:33:47 11° NW 18:35:19 10° NNW
Cosmos 1295 Rocket 4.5 18:28:30 10° N 18:34:48 81° W 18:40:58 10° S
Cosmos 2082 4.0 18:31:32 13° SW 18:36:24 56° WNW 18:41:57 10° NNE
H-2A R/B 3.1 18:33:46 10° NNE 18:37:32 41° E 18:41:17 10° S
Cosmos 2084 3.2 18:35:52 10° NW 18:39:59 75° SW 18:44:04 10° SSE
Meteor 1-12 Rocket 4.2 18:35:48 10° NNW 18:41:34 85° W 18:47:12 10° S
Cosmos 2154 Rocket 4.0 18:40:41 10° N 18:46:59 86° W 18:53:12 10° S
Cosmos 2298 Rocket 4.0 18:44:39 10° NNW 18:49:56 64° WSW 18:55:09 10° S
Cosmos 1844 Rocket 2.7 18:47:00 10° SSW 18:52:36 90° ESE 18:58:14 10° NNE
AQUA 3.8 18:48:39 10° NNE 18:53:21 88° WNW 18:58:02 10° SSW
Atlas Centaur 2 4.3 18:47:14 10° SW 18:53:27 25° SSE 18:59:39 10° ESE
Cosmos 1470 Rocket 4.1 18:49:50 10° NNW 18:53:51 38° W 18:57:53 10° SSW
Cosmos 1400 Rocket 4.3 18:50:40 10° N 18:54:15 39° ENE 18:57:49 10° SE
Cosmos 2344 4.5 18:49:04 10° S 18:56:49 46° ESE 19:03:35 10° NE
Cosmos 2184 Rocket 4.0 18:51:15 10° NNW 18:57:21 66° W 19:03:26 10° S
Cosmos 2074 Rocket 4.1 18:51:56 10° NNW 18:58:08 63° W 19:04:17 10° S
Cosmos 1633 Rocket 4.3 18:55:41 10° NW 18:59:01 22° W 19:02:21 10° SW
NOSS 2-2 (E) 3.5 18:55:45 10° SSW 18:59:20 52° SE 19:02:21 10° NE
Okean 3 3.3 18:57:15 10° SSW 19:01:17 73° W 19:05:18 10° N
EXPRESS MD2 4.5 18:59:04 10° NW 19:01:23 30° NNE 19:04:40 10° ENE
Cosmos 1933 Rocket 3.5 18:57:06 10° NNW 19:01:28 74° W 19:05:47 10° S
Okean 2 4.0 18:59:19 10° SW 19:02:50 35° WNW 19:06:22 10° N
Cosmos 1953 4.2 19:02:15 10° WNW 19:03:34 12° W 19:04:53 10° WSW
CZ-2C R/B 3.1 19:00:59 10° NNE 19:05:31 53° E 19:09:57 10° S
BREEZE-M DEB (TANK) 4.4 18:51:30 10° SW 19:07:35 56° SSE 19:11:45 10° ENE
BREEZE-M DEB (TANK) 4.0 19:07:54 10° W 19:20:29 56° N 19:23:49 10° E
